Location: Passau
(48.5830°N, 13.4830°E)
Time: 01:11:53
(UTC+02:00)

SR - Visible Passes

Search period start: 29 July 2021 00:00
Search period end: 08 August 2021 00:00
Orbit: 577 x 878 km, 66.7° (Epoch: 28 July)

Date Brightness Start Highest point End Pass type
(mag) Time Alt. Az. Time Alt. Az. Time Alt. Az.
04 Aug ? 05:03:27 10° SE 05:06:44 16° ESE 05:09:56 10° ENE visible
06 Aug ? 05:04:04 10° SSE 05:08:47 27° ESE 05:13:20 10° NE visible
07 Aug ? 04:16:22 10° SE 04:19:21 15° ESE 04:22:17 10° ENE visible
